| time (UTC) | temp F | wind direction | speed knots | gust knots | rain 1hr in | rain 24hr in | rain mn in | humidity % | barometer mb |
| 20260507223056 | 71 | 315 | 7.8 | 13.0 | 0.00 | 0.00 | 0.00 | 21 | 1013.2 |
| 20260507221551 | 71 | 318 | 8.7 | 15.6 | 0.00 | 0.00 | 0.00 | 21 | 1013.4 |
| 20260507220049 | 70 | 326 | 8.7 | 15.6 | 0.00 | 0.00 | 0.00 | 21 | 1013.5 |
| 20260507214551 | 71 | 318 | 10.4 | 18.2 | 0.00 | 0.00 | 0.00 | 22 | 1013.7 |
| 20260507213047 | 72 | 298 | 8.7 | 14.8 | 0.00 | 0.00 | 0.00 | 19 | 1013.7 |
| 20260507211600 | 72 | 294 | 8.7 | 18.2 | 0.00 | 0.00 | 0.00 | 21 | 1013.8 |
| 20260507210042 | 71 | 284 | 6.1 | 17.4 | 0.00 | 0.00 | 0.00 | 22 | 1013.9 |
| 20260507204540 | 71 | 280 | 7.8 | 11.3 | 0.00 | 0.00 | 0.00 | 20 | 1014.1 |
| 20260507203042 | 70 | 257 | 8.7 | 14.8 | 0.00 | 0.00 | 0.00 | 19 | 1014.1 |
| 20260507201538 | 70 | 281 | 10.4 | 13.9 | 0.00 | 0.00 | 0.00 | 18 | 1014.1 |
| 20260507200037 | 69 | 252 | 7.0 | 13.9 | 0.00 | 0.00 | 0.00 | 23 | 1014.2 |
| 20260507194538 | 69 | 271 | 9.6 | 15.6 | 0.00 | 0.00 | 0.00 | 23 | 1014.3 |
| 20260507193036 | 68 | 290 | 10.4 | 16.5 | 0.00 | 0.00 | 0.00 | 24 | 1014.4 |
| 20260507191530 | 68 | 278 | 3.5 | 13.0 | 0.00 | 0.00 | 0.00 | 25 | 1014.4 |
| 20260507190032 | 67 | 307 | 11.3 | 15.6 | 0.00 | 0.00 | 0.00 | 26 | 1014.5 |
| 20260507184525 | 66 | 293 | 7.0 | 17.4 | 0.00 | 0.00 | 0.00 | 24 | 1014.6 |
| 20260507183025 | 66 | 314 | 9.6 | 17.4 | 0.00 | 0.00 | 0.00 | 26 | 1014.7 |
| 20260507181523 | 65 | 298 | 7.8 | 16.5 | 0.00 | 0.00 | 0.00 | 25 | 1014.8 |
| 20260507180024 | 65 | 275 | 10.4 | 16.5 | 0.00 | 0.00 | 0.00 | 26 | 1014.9 |
| 20260507174519 | 64 | 330 | 10.4 | 14.8 | 0.00 | 0.00 | 0.00 | 27 | 1014.9 |
| 20260507173018 | 63 | 264 | 11.3 | 18.2 | 0.00 | 0.00 | 0.00 | 29 | 1015.0 |
| 20260507171515 | 63 | 283 | 10.4 | 13.9 | 0.00 | 0.00 | 0.00 | 29 | 1015.0 |
| 20260507170014 | 62 | 304 | 9.6 | 14.8 | 0.00 | 0.00 | 0.00 | 32 | 1015.0 |
| 20260507164512 | 62 | 304 | 13.9 | 18.2 | 0.00 | 0.00 | 0.00 | 29 | 1015.1 |
| 20260507163014 | 62 | 283 | 10.4 | 16.5 | 0.00 | 0.00 | 0.00 | 30 | 1014.8 |
| 20260507161508 | 60 | 250 | 9.6 | 16.5 | 0.00 | 0.00 | 0.00 | 32 | 1014.8 |
| 20260507160005 | 60 | 245 | 13.9 | 18.2 | 0.00 | 0.00 | 0.00 | 34 | 1014.8 |
| 20260507154503 | 60 | 270 | 10.4 | 17.4 | 0.00 | 0.00 | 0.00 | 37 | 1014.9 |
| 20260507153101 | 59 | 281 | 7.8 | 12.2 | 0.00 | 0.00 | 0.00 | 44 | 1015.2 |
| 20260507151556 | 57 | 269 | 4.3 | 11.3 | 0.00 | 0.00 | 0.00 | 51 | 1015.1 |
| 20260507150056 | 58 | 262 | 6.1 | 11.3 | 0.00 | 0.00 | 0.00 | 52 | 1015.1 |
| 20260507144553 | 57 | 250 | 9.6 | 13.9 | 0.00 | 0.00 | 0.00 | 57 | 1014.8 |
| 20260507143051 | 56 | 247 | 11.3 | 15.6 | 0.00 | 0.00 | 0.00 | 59 | 1014.6 |
| 20260507141555 | 54 | 222 | 11.3 | 15.6 | 0.00 | 0.00 | 0.00 | 62 | 1014.5 |
| 20260507140103 | 53 | 224 | 8.7 | 11.3 | 0.00 | 0.00 | 0.00 | 64 | 1014.4 |
| 20260507134546 | 0 | 0.0 | 0.0 | 0.00 | 0.00 | 0.00 | 1014.4 | ||
| 20260507133042 | 0 | 0.0 | 0.0 | 0.00 | 0.00 | 0.00 | 1014.4 | ||
| 20260507131543 | 0 | 0.0 | 0.0 | 0.00 | 0.00 | 0.00 | 1014.4 | ||
| 20260507130036 | 50 | 221 | 6.1 | 9.6 | 0.00 | 0.00 | 0.00 | 66 | 1014.5 |
| 20260507124535 | 50 | 226 | 9.6 | 12.2 | 0.00 | 0.00 | 0.00 | 65 | 1014.2 |
| 20260507123031 | 51 | 231 | 9.6 | 13.9 | 0.00 | 0.00 | 0.00 | 62 | 1014.1 |
| 20260507121527 | 52 | 246 | 10.4 | 13.0 | 0.00 | 0.00 | 0.00 | 61 | 1014.1 |
| 20260507120027 | 53 | 243 | 8.7 | 12.2 | 0.00 | 0.00 | 0.00 | 59 | 1014.2 |
| 20260507114525 | 53 | 253 | 8.7 | 11.3 | 0.00 | 0.00 | 0.00 | 58 | 1014.2 |
| 20260507113024 | 53 | 233 | 8.7 | 10.4 | 0.00 | 0.00 | 0.00 | 58 | 1014.3 |
| 20260507111523 | 53 | 229 | 7.8 | 9.6 | 0.00 | 0.00 | 0.00 | 58 | 1014.4 |
| 20260507110022 | 52 | 232 | 7.8 | 9.6 | 0.00 | 0.00 | 0.00 | 62 | 1014.4 |
| 20260507104526 | 51 | 236 | 9.6 | 12.2 | 0.00 | 0.00 | 0.00 | 62 | 1014.4 |
| 20260507103023 | 52 | 225 | 7.8 | 9.6 | 0.00 | 0.00 | 0.00 | 61 | 1014.4 |
| 20260507101534 | 52 | 232 | 9.6 | 10.4 | 0.00 | 0.00 | 0.00 | 61 | 1014.4 |
| 20260507100027 | 52 | 226 | 8.7 | 10.4 | 0.00 | 0.00 | 0.00 | 61 | 1014.5 |
| 20260507094516 | 52 | 226 | 7.8 | 9.6 | 0.00 | 0.00 | 0.00 | 62 | 1014.6 |
| 20260507093020 | 53 | 233 | 7.0 | 9.6 | 0.00 | 0.00 | 0.00 | 60 | 1014.7 |
| 20260507091533 | 54 | 236 | 8.7 | 9.6 | 0.00 | 0.00 | 0.00 | 59 | 1014.7 |
| 20260507090012 | 54 | 224 | 8.7 | 11.3 | 0.00 | 0.00 | 0.00 | 59 | 1014.8 |
| 20260507084511 | 52 | 226 | 7.8 | 10.4 | 0.00 | 0.00 | 0.00 | 62 | 1014.8 |
| 20260507083014 | 52 | 226 | 7.0 | 9.6 | 0.00 | 0.00 | 0.00 | 62 | 1014.8 |
| 20260507081507 | 53 | 217 | 7.8 | 10.4 | 0.00 | 0.00 | 0.00 | 60 | 1014.8 |
| 20260507080006 | 55 | 221 | 7.8 | 9.6 | 0.00 | 0.00 | 0.00 | 55 | 1014.7 |
| 20260507074505 | 54 | 245 | 7.0 | 9.6 | 0.00 | 0.00 | 0.00 | 57 | 1014.7 |
| 20260507073113 | 54 | 224 | 7.8 | 9.6 | 0.00 | 0.00 | 0.00 | 57 | 1014.8 |
| 20260507071600 | 57 | 234 | 6.1 | 8.7 | 0.00 | 0.00 | 0.00 | 51 | 1014.7 |
| 20260507070135 | 57 | 238 | 5.2 | 8.7 | 0.00 | 0.00 | 0.00 | 50 | 1014.7 |
| 20260507064553 | 58 | 238 | 7.8 | 11.3 | 0.00 | 0.00 | 0.00 | 48 | 1014.6 |
| 20260507063053 | 58 | 246 | 6.1 | 8.7 | 0.00 | 0.00 | 0.00 | 48 | 1014.8 |
| 20260507061551 | 57 | 259 | 5.2 | 7.0 | 0.00 | 0.00 | 0.00 | 48 | 1014.8 |
| 20260507060049 | 58 | 284 | 2.6 | 6.1 | 0.00 | 0.00 | 0.00 | 44 | 1014.9 |
| 20260507054552 | 61 | 252 | 7.8 | 15.6 | 0.00 | 0.00 | 0.00 | 40 | 1014.5 |
| 20260507053046 | 60 | 240 | 12.2 | 19.1 | 0.00 | 0.00 | 0.00 | 39 | 1014.1 |
| 20260507051546 | 60 | 256 | 11.3 | 16.5 | 0.00 | 0.00 | 0.00 | 40 | 1014.1 |
| 20260507050045 | 60 | 269 | 9.6 | 14.8 | 0.00 | 0.00 | 0.00 | 43 | 1014.2 |
| 20260507044548 | 61 | 260 | 9.6 | 15.6 | 0.00 | 0.00 | 0.00 | 43 | 1014.2 |
| 20260507043043 | 61 | 266 | 8.7 | 14.8 | 0.00 | 0.00 | 0.00 | 44 | 1014.3 |
| 20260507041544 | 61 | 262 | 8.7 | 12.2 | 0.00 | 0.00 | 0.00 | 44 | 1014.4 |
| 20260507040040 | 62 | 256 | 7.0 | 13.9 | 0.00 | 0.00 | 0.00 | 42 | 1014.3 |
| 20260507034543 | 63 | 267 | 7.8 | 12.2 | 0.00 | 0.00 | 0.00 | 42 | 1014.1 |
| 20260507033038 | 62 | 262 | 5.2 | 8.7 | 0.00 | 0.00 | 0.00 | 42 | 1014.0 |
| 20260507031541 | 63 | 263 | 7.0 | 12.2 | 0.00 | 0.00 | 0.00 | 41 | 1013.9 |
| 20260507030041 | 63 | 255 | 7.8 | 10.4 | 0.00 | 0.00 | 0.00 | 42 | 1013.8 |
| 20260507024536 | 63 | 250 | 3.5 | 7.8 | 0.00 | 0.00 | 0.00 | 42 | 1013.9 |
| 20260507023034 | 65 | 300 | 6.1 | 10.4 | 0.00 | 0.00 | 0.00 | 39 | 1013.8 |
| 20260507021534 | 67 | 269 | 7.0 | 13.9 | 0.00 | 0.00 | 0.00 | 38 | 1013.8 |
| 20260507020034 | 67 | 301 | 7.8 | 13.0 | 0.00 | 0.00 | 0.00 | 37 | 1013.5 |
| 20260507014535 | 68 | 290 | 9.6 | 13.9 | 0.00 | 0.00 | 0.00 | 36 | 1013.6 |
| 20260507013035 | 68 | 298 | 10.4 | 18.2 | 0.00 | 0.00 | 0.00 | 35 | 1013.5 |
| 20260507011532 | 69 | 301 | 12.2 | 20.0 | 0.00 | 0.00 | 0.00 | 35 | 1013.3 |
| 20260507010030 | 70 | 284 | 11.3 | 16.5 | 0.00 | 0.00 | 0.00 | 34 | 1013.2 |
| 20260507004528 | 71 | 290 | 12.2 | 23.5 | 0.00 | 0.00 | 0.00 | 32 | 1013.0 |
| 20260507003027 | 71 | 293 | 15.6 | 23.5 | 0.00 | 0.00 | 0.00 | 30 | 1012.7 |
| 20260507001527 | 72 | 295 | 13.0 | 22.6 | 0.00 | 0.00 | 0.00 | 30 | 1012.6 |
| 20260507000028 | 73 | 291 | 16.5 | 25.2 | 0.00 | 0.00 | 0.00 | 29 | 1012.5 |
| 20260506234525 | 75 | 291 | 19.1 | 27.8 | 0.00 | 0.00 | 0.00 | 27 | 1012.4 |
| 20260506233025 | 75 | 307 | 17.4 | 24.3 | 0.00 | 0.00 | 0.00 | 27 | 1012.3 |
| 20260506231524 | 75 | 297 | 13.9 | 22.6 | 0.00 | 0.00 | 0.00 | 25 | 1012.5 |
| 20260506230023 | 74 | 283 | 13.9 | 20.0 | 0.00 | 0.00 | 0.00 | 26 | 1012.7 |
| 20260506224523 | 74 | 276 | 14.8 | 25.2 | 0.00 | 0.00 | 0.00 | 25 | 1012.7 |